Philadelphia, PA

12:48 AM EDT on July 26, 2017 (GMT -0400)
Philadelphia International

Weather History for KPHL - November, 2013

Change the Weather History Date:

Monday, November 18, 2013

  Actual Average Record
Temperature  
Mean Temperature 59 °F 47 °F  
Max Temperature 67 °F 55 °F 75 °F (1921)
Min Temperature 51 °F 39 °F 20 °F (1936)
Degree Days  
Heating Degree Days 6 18  
Month to date heating degree days 273 276  
Since 1 July heating degree days 502 569  
Cooling Degree Days 0 0  
Month to date cooling degree days 0 0  
Year to date cooling degree days 1411 1300  
Growing Degree Days 10 (Base 50)    
Moisture  
Dew Point 43 °F    
Average Humidity 50    
Maximum Humidity 84    
Minimum Humidity 16    
Precipitation  
Precipitation 0.18 in 0.10 in 1.07 in (1911)
Month to date precipitation 0.42 1.69  
Year to date precipitation 48.37 36.67  
Snow  
Snow 0.00 in 0.00 in T in (2008)
Month to date snowfall T 0.1  
Since 1 July snowfall T 0.1  
Since 1 September snowfall T 0.1  
Snow Depth 0.00 in    
Sea Level Pressure  
Sea Level Pressure 29.73 in    
Wind  
Wind Speed 15 mph (SW)    
Max Wind Speed 35 mph    
Max Gust Speed 44 mph    
Visibility 9 miles    
Events Rain    
T = Trace of Precipitation, MM = Missing Value Source: NWS Daily Summary

Daily Weather History Graph

Daily Weather History Graph

Search for Another Location

Airport or City:

Trip Planner

Search our weather history database for the weather conditions in past years. The results will help you decide how hot, cold, wet, or windy it might be!

Date:

Astronomy

Nov. 18, 2013 Rise Set
Actual Time 6:49 AM EST 4:42 PM EST
Civil Twilight 6:20 AM EST 5:11 PM EST
Nautical Twilight 5:47 AM EST 5:44 PM EST
Astronomical Twilight 5:15 AM EST 6:16 PM EST
Moon 5:43 PM EST (11/18) 7:36 AM EST (11/18)
Length of Visible Light 10h 51m
Length of Day
9h 53m
Full, 99% of the Moon is Illuminated
Nov 18
Full
Nov 25
Last Quarter
Dec 2
New
Dec 9
First Quarter
Dec 17
Full

Hourly Weather History & Observations

Time (EST) Temp. Dew Point Humidity Pressure Visibility Wind Dir Wind Speed Gust Speed Precip Events Conditions
12:01 AM 62.6 °F 57.2 °F 82% 29.80 in 10.0 mi SSW 10.4 mph - N/A   Overcast
12:16 AM 62.6 °F 57.2 °F 82% 29.78 in 8.0 mi South 15.0 mph - 0.00 in Rain Light Rain
12:33 AM 62.6 °F 57.2 °F 82% 29.75 in 9.0 mi South 15.0 mph - 0.01 in Rain Light Rain
12:41 AM 62.6 °F 57.2 °F 82% 29.74 in 10.0 mi South 13.8 mph - 0.01 in Rain Light Rain
12:54 AM 62.1 °F 57.9 °F 86% 29.74 in 10.0 mi South 17.3 mph - 0.01 in   Mostly Cloudy
1:22 AM 62.6 °F 57.2 °F 82% 29.72 in 8.0 mi South 15.0 mph - 0.00 in Rain Light Rain
1:54 AM 62.1 °F 57.9 °F 86% 29.70 in 9.0 mi South 13.8 mph - 0.01 in Rain Light Rain
2:16 AM 62.6 °F 59.0 °F 88% 29.69 in 6.0 mi South 16.1 mph - 0.00 in Rain Light Rain
2:19 AM 62.6 °F 59.0 °F 88% 29.69 in 4.0 mi South 17.3 mph - 0.00 in Rain Rain
2:25 AM 62.6 °F 59.0 °F 88% 29.68 in 5.0 mi South 17.3 mph - 0.01 in Rain Heavy Rain
2:29 AM 62.6 °F 59.0 °F 88% 29.68 in 4.0 mi South 17.3 mph 25.3 mph 0.04 in Rain Heavy Rain
2:54 AM 63.0 °F 60.1 °F 90% 29.67 in 4.0 mi SSW 15.0 mph - 0.06 in   Overcast
3:00 AM 62.6 °F 60.8 °F 94% 29.67 in 6.0 mi SSW 15.0 mph - N/A   Overcast
3:04 AM 62.6 °F 60.8 °F 94% 29.67 in 8.0 mi SSW 15.0 mph - N/A   Overcast
3:54 AM 63.0 °F 55.9 °F 78% 29.69 in 8.0 mi West 15.0 mph 43.7 mph 0.10 in Rain Light Rain
4:18 AM 60.8 °F 53.6 °F 77% 29.70 in 10.0 mi WSW 12.7 mph - 0.00 in Rain Light Rain
4:54 AM 60.1 °F 51.1 °F 72% 29.71 in 10.0 mi SW 10.4 mph - 0.00 in   Overcast
5:54 AM 60.1 °F 48.0 °F 64% 29.70 in 10.0 mi SW 11.5 mph - N/A   Overcast
6:54 AM 59.0 °F 46.9 °F 64% 29.70 in 10.0 mi SW 10.4 mph - N/A   Mostly Cloudy
7:54 AM 57.9 °F 46.9 °F 67% 29.73 in 10.0 mi SW 9.2 mph - N/A   Mostly Cloudy
8:54 AM 60.1 °F 46.9 °F 62% 29.75 in 10.0 mi SW 13.8 mph - N/A   Mostly Cloudy
9:54 AM 63.0 °F 42.1 °F 46% 29.74 in 10.0 mi SW 17.3 mph - N/A   Partly Cloudy
10:54 AM 64.9 °F 35.1 °F 33% 29.73 in 10.0 mi West 24.2 mph 28.8 mph N/A   Partly Cloudy
11:54 AM 66.0 °F 33.1 °F 29% 29.71 in 10.0 mi WSW 16.1 mph - N/A   Partly Cloudy
12:54 PM 66.9 °F 26.1 °F 21% 29.70 in 10.0 mi WNW 23.0 mph 28.8 mph N/A   Clear
1:54 PM 66.9 °F 27.0 °F 22% 29.68 in 10.0 mi West 18.4 mph 27.6 mph N/A   Clear
2:54 PM 66.0 °F 25.0 °F 21% 29.69 in 10.0 mi West 20.7 mph 27.6 mph N/A   Clear
3:54 PM 66.0 °F 19.9 °F 17% 29.70 in 10.0 mi West 16.1 mph 34.5 mph N/A   Clear
4:54 PM 64.0 °F 23.0 °F 21% 29.72 in 10.0 mi West 10.4 mph - N/A   Clear
5:54 PM 59.0 °F 26.1 °F 28% 29.75 in 10.0 mi West 10.4 mph - N/A   Clear
6:54 PM 61.0 °F 23.0 °F 23% 29.77 in 10.0 mi West 16.1 mph 23.0 mph N/A   Clear
7:54 PM 59.0 °F 21.9 °F 24% 29.79 in 10.0 mi West 17.3 mph 24.2 mph N/A   Clear
8:54 PM 57.9 °F 21.9 °F 25% 29.81 in 10.0 mi WNW 15.0 mph 25.3 mph N/A   Clear
9:54 PM 55.9 °F 23.0 °F 28% 29.83 in 10.0 mi West 12.7 mph - N/A   Partly Cloudy
10:54 PM 54.0 °F 21.9 °F 29% 29.86 in 10.0 mi NW 23.0 mph 32.2 mph N/A   Clear
11:54 PM 51.1 °F 23.0 °F 33% 29.87 in 10.0 mi West 10.4 mph 16.1 mph N/A   Clear